Vorticity
4 4 3 3 2 4 7 8 6 4 3 2 3 4 4 3 2 2 3 5 5 6 7 6 6 4 3 2 2 0 -1 0 3 2 1 2 2 3 2 3 6 10 11
5 5 3 3 2 4 7 8 5 4 3 3 4 4 4 2 2 3 4 5 5 7 7 6 5 4 2 2 1 1 1 3 2 -1 1 -0 2 3 3 5 8 10 6
7 4 4 3 3 4 5 8 6 5 4 4 4 3 2 2 2 4 5 6 6 7 6 5 5 4 3 2 2 1 2 2 2 1 0 3 3 5 9 7 9 5 1
10 6 5 4 4 4 4 7 6 5 4 3 3 3 2 3 3 5 5 5 6 7 6 5 4 4 3 3 2 2 2 2 1 -1 2 1 2 10 10 10 5 -0 1
10 5 4 6 4 5 5 6 7 5 4 4 4 3 2 3 4 5 6 5 7 6 5 4 3 3 3 2 1 1 0 0 0 1 2 -0 0 12 10 6 -2 1 6
3 5 4 5 6 5 6 6 6 6 4 4 3 3 3 4 4 5 5 5 7 5 3 3 3 3 3 2 1 2 1 3 0 4 1 2 7 12 7 -2 1 7 10
2 4 6 5 6 5 5 6 5 5 4 4 4 3 3 4 4 5 5 6 7 5 3 3 3 4 3 3 2 1 0 1 2 2 1 -1 13 9 2 -1 6 10 7
3 5 5 6 5 5 7 6 5 6 4 3 3 4 4 4 5 5 6 6 6 5 4 3 3 4 4 3 3 1 1 4 4 5 4 4 15 6 -4 5 9 8 7
7 5 5 6 6 6 7 7 6 5 5 4 4 4 5 5 6 6 6 6 6 5 4 4 4 4 4 4 3 3 6 4 8 4 2 9 9 2 0 8 9 6 5
7 7 6 3 7 6 7 6 6 6 6 5 4 5 5 6 6 5 5 6 5 5 5 4 5 5 4 5 6 4 6 3 5 7 6 13 6 -4 6 10 6 5 6
5 4 4 4 7 6 6 5 6 6 5 5 4 4 5 6 5 5 6 5 5 4 5 6 5 6 6 6 7 7 3 4 0 4 8 9 4 1 9 7 6 5 11
2 4 5 6 6 6 7 6 6 5 5 4 4 4 4 5 5 4 2 2 4 5 4 4 4 4 6 7 8 5 3 5 2 5 8 10 -5 3 9 6 5 7 13
5 4 5 5 7 6 7 7 6 5 5 4 4 4 5 3 4 1 -0 1 2 4 4 3 3 4 4 4 4 5 9 6 5 4 8 10 -3 4 8 6 4 11 14
5 2 4 5 6 7 6 7 6 5 5 4 4 4 4 4 3 -3 -1 2 3 3 2 3 5 4 4 5 1 1 10 9 8 6 7 8 -2 5 6 3 8 11 15
3 5 2 4 7 7 6 7 7 5 4 4 4 4 5 0 -0 -2 -0 -1 2 2 6 8 8 3 4 8 -0 4 8 8 7 7 7 3 2 4 5 2 8 11 15
-1 4 1 3 6 7 7 7 6 4 5 4 5 4 6 3 1 1 2 8 8 11 9 10 12 13 9 6 -2 11 6 11 6 5 9 -1 3 6 4 3 8 15 14
-8 7 7 -1 5 7 6 6 6 5 4 4 5 6 1 -1 2 8 7 13 7 6 7 9 9 13 10 5 13 7 9 8 7 9 9 -1 3 4 4 3 9 17 13
16 7 4 3 3 8 8 9 6 5 6 8 8 -1 -0 3 5 7 8 7 9 7 8 9 10 9 8 9 7 10 10 8 9 8 8 1 3 4 4 3 7 15 19
-7 17 -16 6 2 9 9 8 7 6 10 6 0 1 4 4 5 6 7 10 7 7 9 9 8 8 8 11 12 10 8 9 7 6 5 2 4 3 3 3 6 15 20
4 -14 26 5 1 9 9 8 7 9 5 1 1 3 4 5 6 4 4 8 6 8 8 6 8 11 10 9 10 9 7 6 5 12 3 2 4 3 4 2 5 11 19
7 10 38 -5 5 6 10 11 6 3 1 2 3 3 7 3 5 5 4 4 6 10 10 9 8 6 5 7 6 4 5 8 8 10 2 2 4 4 3 2 4 3 20
6 -9 -6 41 -3 8 8 10 3 2 4 3 3 4 7 6 5 4 5 5 6 5 4 5 5 5 5 4 4 4 5 7 10 8 3 2 4 4 4 4 1 6 4
12 43 44 -17 -1 -0 9 6 3 2 4 3 3 6 4 4 3 2 1 1 1 3 5 6 6 6 6 5 4 4 6 8 9 8 3 2 4 4 4 3 2 3 6
-4 59 -19 8 11 -2 7 5 1 4 3 2 4 3 2 3 2 3 4 4 5 6 6 3 4 4 4 5 5 5 5 6 8 8 6 3 3 4 5 3 2 2 3
-8 -44 50 65 13 -2 8 8 2 4 2 2 4 3 2 4 3 3 3 5 5 3 4 5 5 5 5 4 5 6 5 6 7 8 6 4 3 3 3 5 2 3 2
7 11 -8 8 44 15 -1 1 5 1 6 2 4 3 4 2 1 3 2 3 4 2 3 4 3 4 5 6 6 6 6 7 7 8 8 6 3 3 4 3 3 2 2
Height
5848 5848 5850 5851 5853 5855 5857 5858 5858 5859 5861 5863 5864 5867 5869 5870 5871 5872 5873 5873 5873 5874 5875 5875 5876 5877 5877 5877 5877 5878 5880 5880 5880 5879 5878 5876 5874 5874 5872 5869 5868 5867 5865
5845 5847 5848 5849 5851 5853 5855 5857 5858 5859 5860 5862 5864 5867 5868 5870 5871 5872 5873 5873 5874 5875 5875 5876 5877 5877 5878 5878 5879 5879 5879 5879 5879 5877 5875 5874 5874 5872 5869 5867 5865 5862 5859
5841 5843 5844 5846 5849 5852 5853 5855 5857 5858 5859 5861 5864 5866 5868 5869 5870 5871 5872 5874 5874 5875 5876 5876 5877 5877 5878 5878 5879 5878 5878 5877 5876 5875 5874 5873 5871 5869 5866 5863 5861 5859 5857
5838 5840 5842 5844 5846 5849 5851 5853 5856 5857 5858 5860 5862 5865 5867 5868 5869 5870 5872 5873 5874 5875 5875 5876 5877 5878 5878 5878 5878 5878 5878 5877 5876 5875 5873 5871 5868 5866 5863 5862 5860 5858 5856
5833 5835 5838 5841 5844 5846 5848 5851 5853 5855 5857 5859 5861 5863 5865 5867 5868 5870 5871 5872 5873 5874 5875 5876 5877 5877 5878 5878 5877 5877 5877 5876 5875 5873 5872 5869 5867 5864 5862 5861 5859 5856 5853
5829 5831 5834 5837 5840 5843 5845 5848 5851 5853 5856 5858 5860 5862 5864 5865 5867 5868 5870 5871 5873 5873 5874 5875 5876 5876 5877 5876 5876 5876 5875 5874 5873 5872 5870 5868 5865 5863 5861 5859 5856 5852 5848
5826 5828 5830 5834 5837 5840 5843 5845 5848 5850 5853 5856 5858 5860 5862 5864 5865 5867 5869 5870 5871 5872 5873 5874 5874 5875 5875 5875 5875 5874 5874 5873 5872 5871 5869 5867 5865 5862 5860 5857 5853 5850 5846
5821 5824 5827 5830 5833 5836 5840 5842 5845 5847 5850 5853 5856 5858 5860 5863 5864 5866 5867 5869 5870 5871 5872 5873 5873 5873 5874 5874 5874 5874 5873 5872 5870 5869 5868 5866 5863 5861 5858 5854 5850 5846 5842
5817 5820 5823 5827 5830 5833 5837 5840 5843 5845 5848 5851 5854 5856 5858 5861 5863 5864 5866 5868 5869 5871 5871 5872 5872 5872 5872 5873 5872 5872 5871 5870 5869 5867 5866 5864 5861 5859 5855 5851 5847 5842 5838
5812 5816 5819 5822 5826 5829 5833 5836 5840 5843 5845 5848 5851 5853 5856 5859 5861 5863 5864 5866 5868 5869 5870 5870 5871 5871 5871 5871 5871 5870 5870 5869 5868 5866 5864 5862 5860 5856 5853 5848 5843 5839 5835
5807 5811 5814 5818 5821 5824 5828 5832 5835 5839 5842 5845 5848 5851 5853 5856 5859 5861 5862 5864 5865 5866 5867 5868 5869 5869 5869 5868 5868 5868 5868 5867 5865 5864 5862 5859 5857 5854 5849 5844 5840 5836 5832
5800 5804 5809 5813 5816 5820 5824 5827 5831 5834 5838 5841 5844 5848 5850 5853 5856 5858 5860 5861 5863 5863 5864 5864 5866 5866 5866 5866 5866 5866 5865 5864 5862 5861 5860 5857 5855 5851 5846 5842 5838 5834 5830
5792 5797 5802 5806 5811 5814 5819 5823 5827 5831 5834 5838 5841 5844 5847 5850 5853 5854 5857 5858 5859 5860 5861 5861 5862 5862 5863 5863 5863 5862 5862 5861 5859 5858 5857 5855 5852 5848 5844 5840 5836 5832 5827
5783 5789 5795 5800 5805 5809 5813 5818 5823 5826 5830 5833 5837 5840 5844 5846 5849 5851 5853 5855 5855 5856 5857 5858 5858 5859 5859 5860 5859 5859 5858 5857 5856 5855 5854 5852 5849 5846 5841 5837 5833 5830 5825
5775 5781 5788 5794 5799 5804 5808 5813 5818 5822 5826 5830 5833 5837 5840 5843 5845 5847 5849 5850 5851 5851 5852 5853 5853 5854 5855 5855 5855 5855 5854 5853 5852 5851 5851 5849 5847 5843 5839 5835 5831 5827 5823
5770 5776 5781 5788 5793 5798 5802 5806 5812 5817 5821 5825 5829 5833 5836 5839 5841 5843 5844 5846 5846 5847 5847 5848 5849 5849 5850 5851 5851 5851 5850 5850 5849 5849 5847 5846 5843 5840 5837 5833 5829 5824 5821
5763 5769 5777 5781 5787 5791 5796 5799 5805 5811 5816 5821 5826 5829 5831 5835 5837 5839 5840 5841 5842 5843 5843 5844 5845 5845 5846 5846 5847 5846 5846 5846 5846 5845 5844 5843 5840 5837 5834 5830 5827 5822 5818
5755 5762 5768 5774 5781 5785 5790 5795 5798 5805 5811 5816 5820 5825 5827 5830 5832 5834 5835 5837 5838 5839 5840 5840 5841 5842 5842 5842 5842 5842 5842 5842 5842 5842 5841 5839 5836 5834 5831 5828 5824 5820 5816
5746 5753 5760 5768 5773 5779 5784 5789 5793 5799 5805 5810 5815 5819 5823 5826 5828 5830 5831 5832 5834 5835 5836 5837 5837 5838 5838 5838 5838 5838 5838 5838 5838 5837 5837 5835 5833 5831 5828 5824 5820 5817 5812
5738 5745 5752 5759 5765 5771 5776 5781 5788 5795 5801 5806 5810 5813 5817 5820 5823 5825 5827 5828 5829 5830 5831 5833 5833 5834 5834 5834 5834 5834 5835 5834 5834 5833 5832 5831 5829 5827 5824 5822 5818 5814 5810
5730 5736 5743 5751 5757 5763 5769 5776 5784 5790 5795 5798 5803 5808 5812 5815 5818 5821 5822 5823 5824 5826 5827 5828 5829 5830 5830 5830 5831 5830 5830 5830 5830 5829 5828 5827 5825 5823 5821 5818 5814 5811 5807
5724 5731 5736 5739 5749 5755 5763 5770 5776 5779 5786 5791 5797 5803 5807 5809 5812 5815 5817 5818 5820 5821 5823 5824 5825 5825 5826 5826 5826 5826 5826 5826 5825 5824 5824 5823 5821 5819 5817 5814 5811 5807 5803
5713 5720 5723 5725 5737 5745 5754 5762 5767 5772 5779 5787 5793 5796 5798 5802 5806 5809 5811 5813 5815 5816 5818 5819 5820 5820 5821 5821 5821 5822 5821 5820 5819 5819 5819 5818 5817 5814 5812 5810 5807 5803 5800
5708 5709 5716 5716 5726 5737 5746 5754 5760 5767 5775 5780 5782 5785 5790 5796 5799 5802 5805 5807 5809 5810 5812 5813 5814 5815 5815 5815 5816 5816 5815 5814 5813 5813 5813 5812 5811 5809 5808 5805 5802 5799 5796
5700 5702 5711 5712 5718 5727 5736 5744 5753 5760 5767 5771 5774 5779 5785 5790 5792 5795 5798 5800 5802 5804 5805 5807 5807 5808 5809 5809 5809 5809 5808 5808 5807 5807 5806 5805 5804 5803 5802 5800 5797 5794 5792
5692 5698 5704 5705 5710 5719 5728 5737 5744 5752 5757 5762 5766 5772 5777 5781 5784 5787 5790 5793 5795 5797 5798 5800 5800 5801 5802 5803 5802 5802 5802 5801 5800 5800 5799 5799 5797 5796 5795 5794 5791 5788 5786